Location: Newark
(34.9500°N, 139.9667°E)
Time: 06:18:49
(UTC+00:00)

Transit 2A - Pass Details

Date: 12 December 2019
Orbit: 601 x 958 km, 66.7° (Epoch: 23 January)

Event Time Altitude Azimuth Distance (km) Brightness Sun altitude
Rises 07:48:11 0° 308° (NW) 2,926 9.4 -4.3°
Reaches altitude 10° 07:51:29 10° 282° (WNW) 2,067 9.2 -5.0°
Maximum altitude 07:53:44 14° 253° (WSW) 1,879 9.7 -5.4°
Drops below altitude 10° 07:56:05 10° 224° (SW) 2,153 9.7 -5.8°
Sets 07:59:40 0° 198° (SSW) 3,151 9.9 -6.5°
